Date String (YYYY-MM-DD hh:mm:ss) UTC,Instrument flags,Ambient pressure (hPa),Sample flow (lpm),Bypass flow (lpm),Sample temperature (°C),Ambient temperature (°C),ASC tube jacket temperature (°C),LED temperature (°C),Box temperature (°C),Sample RH (%),Span deviation,Mass concentration (μg/m³),Mass concentration (μg/m³),Mass concentration (μg/m³)
DateTimeUTC,F1_M11,P_M11,Q1_M11,Q2_M11,T1_M11,T2_M11,T3_M11,T4_M11,T5_M11,U1_M11,ZSPAN_M11,X0_M11,X2_M11,X1_M11
2022-04-20 15:00:00,,0818.5,4.99,0.00,26.1,25.2,00.0,35.1,27.9,14.6,0000.0,0022.24,0005.70,0002.65
2022-04-20 15:01:00,,0818.5,5.01,0.00,26.1,25.2,00.0,35.1,27.9,14.6,0000.0,0022.16,0005.68,0002.64
2022-04-20 15:02:00,,0818.6,5.01,0.00,26.1,25.2,00.0,35.1,27.9,14.5,0000.0,0021.84,0005.69,0002.62
2022-04-20 15:03:00,,0818.7,4.99,0.00,26.1,25.2,00.0,35.1,27.9,14.6,0000.0,0022.47,0005.72,0002.61
2022-04-20 15:04:00,,0818.7,5.00,0.00,26.1,25.2,00.0,35.1,27.9,14.6,0000.0,0022.73,0005.69,0002.59
2022-04-20 15:05:00,,0818.6,5.01,0.00,26.1,25.2,00.0,35.1,27.9,14.6,0000.0,0023.08,0005.75,0002.59
2022-04-20 15:06:00,,0818.5,4.99,0.00,26.1,25.2,00.0,35.1,27.9,14.6,0000.0,0021.02,0005.73,0002.58
2022-04-20 15:07:00,,0818.4,4.99,0.00,26.1,25.2,00.0,35.1,27.9,14.7,0000.0,0020.26,0005.62,0002.56
2022-04-20 15:08:00,,0818.4,5.00,0.00,26.1,25.3,00.0,35.1,28.0,14.7,0000.0,0021.04,0005.57,0002.55
2022-04-20 15:09:00,,0818.4,5.01,0.00,26.2,25.3,00.0,35.1,28.0,14.6,0000.0,0020.82,0005.56,0002.54
2022-04-20 15:10:00,,0818.4,5.00,0.00,26.2,25.4,00.0,35.1,28.0,14.7,0000.0,0019.87,0005.48,0002.53
2022-04-20 15:11:00,,0818.4,5.00,0.00,26.2,25.4,00.0,35.1,27.9,14.6,0000.0,0020.90,0005.46,0002.50
2022-04-20 15:12:00,,0818.4,4.99,0.00,26.2,25.3,00.0,35.1,27.9,14.7,0000.0,0020.85,0005.44,0002.48
2022-04-20 15:13:00,,0818.4,5.02,0.00,26.1,25.3,00.0,35.1,27.9,14.7,0000.0,0021.29,0005.42,0002.48
2022-04-20 15:14:00,,0818.4,5.01,0.00,26.1,25.3,00.0,35.1,27.9,14.8,0000.0,0021.29,0005.39,0002.50
2022-04-20 15:15:00,,0818.4,5.00,0.00,26.1,25.4,00.0,35.1,27.9,14.8,0000.0,0020.22,0005.43,0002.50
2022-04-20 15:16:00,,0818.4,4.99,0.00,26.1,25.3,00.0,35.1,27.9,14.8,0000.0,0019.31,0005.39,0002.51
2022-04-20 15:17:00,,0818.3,5.01,0.00,26.1,25.3,00.0,35.1,27.9,14.9,0000.0,0020.36,0005.39,0002.50
2022-04-20 15:18:00,,0818.4,5.01,0.00,26.1,25.3,00.0,35.1,28.0,14.9,0000.0,0021.23,0005.49,0002.53
2022-04-20 15:19:00,,0818.4,5.00,0.00,26.2,25.4,00.0,35.1,28.0,14.9,0000.0,0022.04,0005.62,0002.55
2022-04-20 15:20:00,,0818.5,5.01,0.00,26.2,25.4,00.0,35.1,28.0,14.8,0000.0,0023.56,0005.70,0002.56
2022-04-20 15:21:00,,0818.6,5.01,0.00,26.2,25.5,00.0,35.1,28.0,14.8,0000.0,0024.04,0005.80,0002.59
2022-04-20 15:22:00,,0818.5,5.00,0.00,26.2,25.5,00.0,35.1,28.0,14.9,0000.0,0024.10,0005.92,0002.62
2022-04-20 15:23:00,,0818.4,4.99,0.00,26.2,25.5,00.0,35.1,28.0,14.8,0000.0,0023.87,0005.98,0002.64
2022-04-20 15:24:00,,0818.4,4.99,0.00,26.2,25.5,00.0,35.1,28.0,14.9,0000.0,0023.49,0005.94,0002.63
2022-04-20 15:25:00,,0818.4,5.01,0.00,26.2,25.5,00.0,35.1,28.0,14.9,0000.0,0023.38,0005.90,0002.63
2022-04-20 15:26:00,,0818.5,4.99,0.00,26.2,25.5,00.0,35.1,28.0,14.9,0000.0,0023.20,0005.87,0002.61
2022-04-20 15:27:00,,0818.5,4.99,0.00,26.2,25.5,00.0,35.1,28.0,14.7,0000.0,0024.53,0005.86,0002.60
2022-04-20 15:28:00,,0818.5,5.00,0.00,26.2,25.5,00.0,35.1,28.0,14.6,0000.0,0023.92,0005.86,0002.61
2022-04-20 15:29:00,,0818.5,5.02,0.00,26.2,25.4,00.0,35.2,28.0,14.8,0000.0,0023.04,0005.86,0002.60
2022-04-20 15:30:00,,0818.5,4.99,0.00,26.2,25.4,00.0,35.2,28.0,15.0,0000.0,0022.16,0005.82,0002.58
2022-04-20 15:31:00,,0818.5,4.99,0.00,26.2,25.5,00.0,35.2,28.0,14.9,0000.0,0020.94,0005.77,0002.59
2022-04-20 15:32:00,,0818.4,5.02,0.00,26.2,25.5,00.0,35.2,28.0,14.9,0000.0,0021.28,0005.74,0002.58
2022-04-20 15:33:00,,0818.3,4.99,0.00,26.2,25.5,00.0,35.2,28.0,14.9,0000.0,0020.42,0005.65,0002.57
2022-04-20 15:34:00,,0818.4,5.00,0.00,26.2,25.4,00.0,35.2,28.0,14.8,0000.0,0020.72,0005.67,0002.57
2022-04-20 15:35:00,,0818.6,5.01,0.00,26.2,25.5,00.0,35.2,28.0,14.7,0000.0,0020.60,0005.73,0002.56
2022-04-20 15:36:00,,0818.5,5.01,0.00,26.2,25.4,00.0,35.2,28.0,14.7,0000.0,0021.14,0005.71,0002.57
2022-04-20 15:37:00,,0818.4,4.99,0.00,26.2,25.3,00.0,35.2,28.0,14.7,0000.0,0021.21,0005.64,0002.57
2022-04-20 15:38:00,,0818.4,5.01,0.00,26.2,25.3,00.0,35.2,28.0,14.8,0000.0,0020.23,0005.68,0002.56
2022-04-20 15:39:00,,0818.4,4.99,0.00,26.2,25.3,00.0,35.2,28.0,14.9,0000.0,0020.79,0005.67,0002.56
2022-04-20 15:40:00,,0818.5,4.99,0.00,26.2,25.4,00.0,35.2,28.0,14.7,0000.0,0022.36,0005.63,0002.58
2022-04-20 15:41:00,,0818.5,4.99,0.00,26.2,25.4,00.0,35.2,28.0,14.7,0000.0,0022.53,0005.56,0002.59
2022-04-20 15:42:00,,0818.6,5.00,0.00,26.2,25.5,00.0,35.2,28.1,14.7,0000.0,0022.62,0005.56,0002.61
2022-04-20 15:43:00,,0818.7,5.01,0.00,26.2,25.5,00.0,35.2,28.1,14.7,0000.0,0021.81,0005.52,0002.60
2022-04-20 15:44:00,,0818.5,5.00,0.00,26.2,25.6,00.0,35.2,28.1,14.7,0000.0,0022.17,0005.50,0002.61
2022-04-20 15:45:00,,0818.5,5.00,0.00,26.3,25.6,00.0,35.2,28.1,14.6,0000.0,0022.00,0005.51,0002.63
2022-04-20 15:46:00,,0818.4,5.00,0.00,26.2,25.5,00.0,35.2,28.0,14.6,0000.0,0021.57,0005.53,0002.67
2022-04-20 15:47:00,,0818.5,5.00,0.00,26.2,25.5,00.0,35.2,28.0,14.7,0000.0,0020.82,0005.59,0002.71
2022-04-20 15:48:00,,0818.5,5.00,0.00,26.2,25.5,00.0,35.2,28.0,14.6,0000.0,0020.62,0005.69,0002.75
2022-04-20 15:49:00,,0818.5,5.01,0.00,26.2,25.5,00.0,35.2,28.0,14.6,0000.0,0020.98,0005.69,0002.79
2022-04-20 15:50:00,,0818.5,5.00,0.00,26.2,25.5,00.0,35.2,28.0,14.7,0000.0,0021.71,0005.72,0002.82
2022-04-20 15:51:00,,0818.5,4.99,0.00,26.2,25.4,00.0,35.2,28.0,14.6,0000.0,0021.30,0005.75,0002.83
2022-04-20 15:52:00,,0818.7,4.99,0.00,26.2,25.4,00.0,35.2,28.0,14.6,0000.0,0020.58,0005.83,0002.85
2022-04-20 15:53:00,,0818.8,5.00,0.00,26.2,25.4,00.0,35.2,27.9,14.7,0000.0,0020.71,0005.84,0002.85
2022-04-20 15:54:00,,0818.5,5.02,0.00,26.2,25.4,00.0,35.2,28.0,14.6,0000.0,0021.38,0005.84,0002.86
2022-04-20 15:55:00,,0818.4,4.99,0.00,26.2,25.4,00.0,35.2,28.0,14.8,0000.0,0021.79,0005.84,0002.86
2022-04-20 15:56:00,,0818.5,5.00,0.00,26.2,25.5,00.0,35.2,28.0,15.0,0000.0,0022.14,0005.78,0002.83
2022-04-20 15:57:00,,0818.5,5.01,0.00,26.2,25.5,00.0,35.2,28.0,14.7,0000.0,0023.48,0005.76,0002.85
2022-04-20 15:58:00,,0818.6,5.01,0.00,26.2,25.5,00.0,35.2,28.0,14.7,0000.0,0024.11,0005.77,0002.85
2022-04-20 15:59:00,,0818.6,4.99,0.00,26.2,25.5,00.0,35.2,28.0,14.7,0000.0,0024.50,0005.71,0002.84
